User: anonymous   Login
Location: Owatonna
(44.0840°N, 93.2260°W)
Time: 23:04:58
(UTC-05:00)
Language:

Cosmos 1500 Rocket - Orbit

View from above orbital plane
View from above orbital plane
View from above satellite
View from above satellite

Ground track
Ground track

The orbit data is extracted from the following two-line orbital elements,

1 14373U 83099B   15210.00879215  .00000166  00000-0  17188-4 0  9990
2 14373 082.5418 168.5217 0019902 345.3908 083.1148 14.83481058718699
Epoch (UTC): 29 July 2015 00:12:39
Eccentricity: 0.0019902
inclination: 82.5418°
perigee height: 604 km
apogee height: 632 km
right ascension of ascending node: 168.5217°
argument of perigee: 345.3908°
revolutions per day: 14.83481058
mean anomaly at epoch: 83.1148°
orbit number at epoch: 71869

The dashed part of the orbit path shows where the satellite is in the earth's shadow,  

DLR